| time (UTC) | temp C | wind direction | speed KPH | gust KPH | rain 1hr cm | rain 24hr cm | rain mn cm | humidity % | barometer mb |
| 20260901141056 | 16 | 0.0 | 0.0 | 0.00 | 0.03 | 0.00 | 82 | 1026.0 | |
| 20260901140016 | 15 | 146 | 0.0 | 1.6 | 0.00 | 0.03 | 0.00 | 81 | 1025.9 |
| 20260901135037 | 15 | 0.0 | 0.0 | 0.00 | 0.03 | 0.00 | 82 | 1025.9 | |
| 20260901134017 | 15 | 0.0 | 0.0 | 0.00 | 0.03 | 0.00 | 82 | 1025.9 | |
| 20260901133015 | 15 | 146 | 0.0 | 1.6 | 0.00 | 0.03 | 0.00 | 82 | 1025.7 |
| 20260901132016 | 15 | 146 | 0.0 | 1.6 | 0.00 | 0.03 | 0.00 | 83 | 1025.6 |
| 20260901131016 | 15 | 174 | 0.0 | 1.6 | 0.00 | 0.03 | 0.00 | 85 | 1025.5 |
| 20260901130016 | 14 | 0.0 | 0.0 | 0.00 | 0.03 | 0.00 | 85 | 1025.3 | |
| 20260901125016 | 14 | 0.0 | 0.0 | 0.00 | 0.03 | 0.00 | 84 | 1025.1 | |
| 20260901124017 | 14 | 0.0 | 0.0 | 0.00 | 0.03 | 0.00 | 84 | 1025.0 | |
| 20260901123014 | 14 | 0.0 | 0.0 | 0.00 | 0.03 | 0.00 | 84 | 1025.0 | |
| 20260901122015 | 14 | 0.0 | 0.0 | 0.00 | 0.03 | 0.00 | 83 | 1024.9 | |
| 20260901121015 | 15 | 0.0 | 0.0 | 0.00 | 0.03 | 0.00 | 83 | 1024.8 | |
| 20260901120016 | 15 | 0.0 | 0.0 | 0.00 | 0.03 | 0.00 | 82 | 1024.8 | |
| 20260901115016 | 15 | 0.0 | 0.0 | 0.00 | 0.03 | 0.00 | 80 | 1024.8 | |
| 20260901114016 | 15 | 290 | 0.0 | 3.2 | 0.00 | 0.03 | 0.00 | 79 | 1024.7 |
| 20260901113017 | 15 | 151 | 0.0 | 6.4 | 0.00 | 0.03 | 0.00 | 78 | 1024.5 |
| 20260901112015 | 15 | 143 | 1.6 | 6.4 | 0.00 | 0.03 | 0.00 | 79 | 1024.5 |
| 20260901111015 | 15 | 137 | 1.6 | 3.2 | 0.00 | 0.03 | 0.00 | 80 | 1024.7 |
| 20260901110035 | 15 | 143 | 0.0 | 3.2 | 0.00 | 0.03 | 0.00 | 81 | 1024.9 |
| 20260901105036 | 15 | 135 | 0.0 | 1.6 | 0.00 | 0.03 | 0.00 | 81 | 1025.1 |
| 20260901104016 | 15 | 132 | 0.0 | 3.2 | 0.00 | 0.03 | 0.00 | 80 | 1025.2 |
| 20260901103017 | 15 | 147 | 0.0 | 1.6 | 0.00 | 0.03 | 0.00 | 80 | 1025.3 |
| 20260901102037 | 15 | 147 | 0.0 | 1.6 | 0.00 | 0.03 | 0.00 | 81 | 1025.5 |
| 20260901101035 | 15 | 147 | 0.0 | 1.6 | 0.00 | 0.03 | 0.00 | 81 | 1025.6 |
| 20260901100015 | 15 | 140 | 1.6 | 4.8 | 0.00 | 0.03 | 0.00 | 81 | 1025.6 |
| 20260901095016 | 15 | 144 | 0.0 | 1.6 | 0.00 | 0.03 | 0.00 | 81 | 1025.7 |
| 20260901094016 | 15 | 145 | 0.0 | 3.2 | 0.00 | 0.03 | 0.00 | 81 | 1026.0 |
| 20260901093016 | 15 | 139 | 0.0 | 3.2 | 0.00 | 0.03 | 0.00 | 81 | 1026.0 |
| 20260901092017 | 15 | 139 | 0.0 | 1.6 | 0.00 | 0.03 | 0.00 | 81 | 1026.1 |
| 20260901091017 | 15 | 139 | 0.0 | 3.2 | 0.00 | 0.03 | 0.00 | 81 | 1026.1 |
| 20260901090035 | 15 | 139 | 0.0 | 3.2 | 0.00 | 0.03 | 0.00 | 81 | 1026.1 |
| 20260901085015 | 15 | 139 | 0.0 | 1.6 | 0.00 | 0.03 | 0.00 | 81 | 1026.1 |
| 20260901084016 | 15 | 140 | 0.0 | 1.6 | 0.00 | 0.03 | 0.00 | 82 | 1026.3 |
| 20260901083036 | 15 | 143 | 1.6 | 4.8 | 0.00 | 0.03 | 0.00 | 82 | 1026.4 |
| 20260901082017 | 15 | 145 | 0.0 | 1.6 | 0.00 | 0.03 | 0.00 | 83 | 1026.4 |
| 20260901081017 | 15 | 145 | 0.0 | 1.6 | 0.00 | 0.03 | 0.00 | 83 | 1026.6 |
| 20260901080014 | 15 | 145 | 0.0 | 1.6 | 0.00 | 0.03 | 0.00 | 82 | 1026.7 |
| 20260901075015 | 15 | 0.0 | 0.0 | 0.00 | 0.03 | 0.00 | 82 | 1026.9 | |
| 20260901074015 | 15 | 282 | 0.0 | 1.6 | 0.00 | 0.03 | 0.00 | 83 | 1026.9 |
| 20260901073036 | 15 | 0.0 | 0.0 | 0.00 | 0.03 | 0.00 | 83 | 1026.8 | |
| 20260901072016 | 15 | 0.0 | 0.0 | 0.00 | 0.03 | 0.00 | 83 | 1027.0 | |
| 20260901071017 | 15 | 0.0 | 0.0 | 0.00 | 0.03 | 0.00 | 83 | 1027.0 | |
| 20260901070017 | 15 | 0.0 | 0.0 | 0.00 | 0.03 | 0.00 | 83 | 1026.9 | |
| 20260901065015 | 15 | 0.0 | 0.0 | 0.00 | 0.03 | 0.00 | 83 | 1026.8 | |
| 20260901064015 | 15 | 0.0 | 0.0 | 0.00 | 0.03 | 0.00 | 82 | 1026.7 | |
| 20260901063015 | 15 | 0.0 | 0.0 | 0.00 | 0.03 | 0.00 | 82 | 1026.8 | |
| 20260901062016 | 15 | 0.0 | 0.0 | 0.00 | 0.03 | 0.00 | 81 | 1026.8 | |
| 20260901061016 | 16 | 0.0 | 0.0 | 0.00 | 0.03 | 0.00 | 81 | 1026.6 | |
| 20260901060017 | 16 | 0.0 | 0.0 | 0.00 | 0.03 | 0.00 | 80 | 1026.7 | |
| 20260901055017 | 16 | 141 | 0.0 | 1.6 | 0.00 | 0.03 | 0.03 | 80 | 1027.2 |
| 20260901054035 | 16 | 144 | 1.6 | 3.2 | 0.00 | 0.03 | 0.03 | 80 | 1027.4 |
| 20260901053015 | 16 | 139 | 1.6 | 4.8 | 0.00 | 0.03 | 0.03 | 81 | 1027.3 |
| 20260901052016 | 16 | 142 | 0.0 | 3.2 | 0.00 | 0.03 | 0.03 | 81 | 1027.3 |
| 20260901050036 | 16 | 132 | 0.0 | 1.6 | 0.00 | 0.03 | 0.03 | 81 | 1026.9 |
| 20260901045017 | 16 | 0.0 | 0.0 | 0.00 | 0.03 | 0.03 | 82 | 1027.0 | |
| 20260901044017 | 16 | 132 | 0.0 | 1.6 | 0.00 | 0.03 | 0.03 | 82 | 1026.7 |
| 20260901043055 | 16 | 0.0 | 0.0 | 0.00 | 0.03 | 0.03 | 82 | 1026.5 | |
| 20260901042015 | 16 | 0.0 | 0.0 | 0.00 | 0.03 | 0.03 | 81 | 1026.5 | |
| 20260901041016 | 16 | 0.0 | 0.0 | 0.00 | 0.03 | 0.03 | 81 | 1026.5 | |
| 20260901040016 | 16 | 0.0 | 0.0 | 0.00 | 0.03 | 0.03 | 79 | 1026.7 | |
| 20260901035016 | 17 | 0.0 | 0.0 | 0.00 | 0.03 | 0.03 | 78 | 1026.9 | |
| 20260901034017 | 17 | 255 | 0.0 | 1.6 | 0.03 | 0.03 | 0.03 | 78 | 1027.1 |
| 20260901033057 | 16 | 220 | 0.0 | 3.2 | 0.03 | 0.03 | 0.03 | 81 | 1027.1 |
| 20260901032035 | 16 | 0.0 | 0.0 | 0.03 | 0.03 | 0.03 | 82 | 1027.5 | |
| 20260901031035 | 17 | 242 | 0.0 | 1.6 | 0.03 | 0.03 | 0.03 | 81 | 1027.5 |
| 20260901030016 | 17 | 242 | 0.0 | 1.6 | 0.03 | 0.03 | 0.03 | 81 | 1027.6 |
| 20260901025016 | 17 | 166 | 0.0 | 3.2 | 0.03 | 0.03 | 0.03 | 80 | 1027.6 |
| 20260901024016 | 18 | 127 | 1.6 | 6.4 | 0.00 | 0.00 | 0.00 | 77 | 1027.2 |
| 20260901023017 | 18 | 168 | 1.6 | 11.3 | 0.00 | 0.00 | 0.00 | 74 | 1027.4 |
| 20260901022015 | 21 | 173 | 4.8 | 16.1 | 0.00 | 0.00 | 0.00 | 62 | 1027.0 |
| 20260901021015 | 23 | 263 | 3.2 | 17.7 | 0.00 | 0.00 | 0.00 | 46 | 1025.9 |
| 20260901020036 | 23 | 129 | 0.0 | 3.2 | 0.00 | 0.00 | 0.00 | 45 | 1025.0 |
| 20260901015056 | 23 | 143 | 1.6 | 6.4 | 0.00 | 0.00 | 0.00 | 44 | 1024.6 |
| 20260901014016 | 24 | 143 | 1.6 | 8.0 | 0.00 | 0.00 | 0.00 | 44 | 1024.4 |
| 20260901013016 | 24 | 132 | 1.6 | 6.4 | 0.00 | 0.00 | 0.00 | 43 | 1024.3 |
| 20260901012017 | 24 | 101 | 0.0 | 3.2 | 0.00 | 0.00 | 0.00 | 45 | 1024.1 |
| 20260901011015 | 25 | 93 | 1.6 | 3.2 | 0.00 | 0.00 | 0.00 | 47 | 1024.0 |
| 20260901010016 | 25 | 91 | 0.0 | 4.8 | 0.00 | 0.00 | 0.00 | 46 | 1023.9 |
| 20260901005015 | 25 | 98 | 0.0 | 1.6 | 0.00 | 0.00 | 0.00 | 44 | 1024.1 |
| 20260901004036 | 25 | 90 | 0.0 | 1.6 | 0.00 | 0.00 | 0.00 | 44 | 1024.3 |
| 20260901003016 | 26 | 245 | 0.0 | 1.6 | 0.00 | 0.00 | 0.00 | 43 | 1024.4 |
| 20260901002016 | 26 | 89 | 1.6 | 3.2 | 0.00 | 0.00 | 0.00 | 42 | 1024.5 |
| 20260901001017 | 26 | 99 | 1.6 | 3.2 | 0.00 | 0.00 | 0.00 | 39 | 1024.5 |
| 20260901000015 | 27 | 91 | 1.6 | 4.8 | 0.00 | 0.00 | 0.00 | 38 | 1024.5 |
| 20260831235015 | 27 | 97 | 1.6 | 4.8 | 0.00 | 0.00 | 0.00 | 38 | 1024.6 |
| 20260831234015 | 27 | 100 | 1.6 | 3.2 | 0.00 | 0.00 | 0.00 | 38 | 1024.6 |
| 20260831233016 | 28 | 85 | 1.6 | 6.4 | 0.00 | 0.00 | 0.00 | 37 | 1024.6 |
| 20260831232016 | 28 | 89 | 1.6 | 4.8 | 0.00 | 0.00 | 0.00 | 37 | 1024.6 |
| 20260831231017 | 27 | 133 | 1.6 | 6.4 | 0.00 | 0.00 | 0.00 | 35 | 1024.6 |
| 20260831230017 | 27 | 115 | 1.6 | 4.8 | 0.00 | 0.00 | 0.00 | 35 | 1024.6 |
| 20260831225035 | 27 | 144 | 3.2 | 8.0 | 0.00 | 0.00 | 0.00 | 34 | 1024.9 |
| 20260831224015 | 28 | 133 | 1.6 | 6.4 | 0.00 | 0.00 | 0.00 | 33 | 1024.9 |
| 20260831223016 | 29 | 139 | 1.6 | 6.4 | 0.00 | 0.00 | 0.00 | 33 | 1025.1 |
| 20260831222016 | 30 | 136 | 1.6 | 9.7 | 0.00 | 0.00 | 0.00 | 32 | 1025.2 |
| 20260831221016 | 29 | 88 | 1.6 | 3.2 | 0.00 | 0.03 | 0.00 | 33 | 1025.3 |
| 20260831220017 | 30 | 146 | 1.6 | 6.4 | 0.00 | 0.05 | 0.00 | 34 | 1025.2 |
| 20260831215014 | 30 | 48 | 1.6 | 4.8 | 0.00 | 0.05 | 0.00 | 34 | 1025.3 |
| 20260831214015 | 30 | 96 | 1.6 | 3.2 | 0.00 | 0.05 | 0.00 | 35 | 1025.5 |
| 20260831213015 | 30 | 95 | 1.6 | 4.8 | 0.00 | 0.05 | 0.00 | 35 | 1025.6 |
| 20260831212016 | 29 | 89 | 1.6 | 4.8 | 0.00 | 0.05 | 0.00 | 35 | 1025.7 |
| 20260831211016 | 28 | 111 | 1.6 | 3.2 | 0.00 | 0.05 | 0.00 | 36 | 1025.8 |
| 20260831210036 | 28 | 99 | 1.6 | 4.8 | 0.00 | 0.05 | 0.00 | 34 | 1026.0 |
| 20260831205017 | 29 | 114 | 0.0 | 1.6 | 0.00 | 0.05 | 0.00 | 36 | 1026.0 |
| 20260831204015 | 28 | 120 | 1.6 | 4.8 | 0.00 | 0.05 | 0.00 | 36 | 1026.2 |
| 20260831203015 | 28 | 92 | 0.0 | 3.2 | 0.00 | 0.05 | 0.00 | 38 | 1026.3 |
| 20260831202016 | 28 | 283 | 0.0 | 3.2 | 0.00 | 0.05 | 0.00 | 38 | 1026.5 |
| 20260831201016 | 27 | 0.0 | 0.0 | 0.00 | 0.05 | 0.00 | 38 | 1026.7 | |
| 20260831200016 | 27 | 0.0 | 0.0 | 0.00 | 0.05 | 0.00 | 40 | 1026.8 | |
| 20260831195016 | 27 | 0.0 | 0.0 | 0.00 | 0.05 | 0.00 | 39 | 1026.8 | |
| 20260831194017 | 27 | 219 | 0.0 | 1.6 | 0.00 | 0.05 | 0.00 | 39 | 1026.9 |
| 20260831193015 | 27 | 242 | 0.0 | 3.2 | 0.00 | 0.05 | 0.00 | 38 | 1027.0 |
| 20260831192015 | 27 | 27 | 0.0 | 1.6 | 0.00 | 0.05 | 0.00 | 39 | 1027.1 |
| 20260831191015 | 27 | 289 | 0.0 | 1.6 | 0.00 | 0.05 | 0.00 | 39 | 1027.2 |
| 20260831190036 | 27 | 282 | 0.0 | 1.6 | 0.00 | 0.05 | 0.00 | 38 | 1027.3 |
| 20260831185016 | 27 | 256 | 0.0 | 3.2 | 0.00 | 0.05 | 0.00 | 37 | 1027.4 |
| 20260831184017 | 27 | 250 | 0.0 | 1.6 | 0.00 | 0.05 | 0.00 | 38 | 1027.5 |
| 20260831183037 | 26 | 244 | 0.0 | 1.6 | 0.00 | 0.05 | 0.00 | 39 | 1027.6 |
| 20260831182015 | 26 | 0.0 | 0.0 | 0.00 | 0.05 | 0.00 | 40 | 1027.7 | |
| 20260831181015 | 26 | 267 | 0.0 | 1.6 | 0.00 | 0.05 | 0.00 | 40 | 1027.7 |
| 20260831180015 | 26 | 266 | 0.0 | 1.6 | 0.00 | 0.05 | 0.00 | 41 | 1027.8 |
| 20260831175016 | 26 | 270 | 0.0 | 1.6 | 0.00 | 0.05 | 0.00 | 41 | 1027.9 |
| 20260831174016 | 25 | 251 | 0.0 | 1.6 | 0.00 | 0.05 | 0.00 | 42 | 1027.8 |
| 20260831173017 | 25 | 0.0 | 0.0 | 0.00 | 0.05 | 0.00 | 42 | 1027.9 | |
| 20260831172017 | 25 | 250 | 0.0 | 1.6 | 0.00 | 0.05 | 0.00 | 41 | 1028.0 |
| 20260831171035 | 25 | 0.0 | 0.0 | 0.00 | 0.05 | 0.00 | 41 | 1028.0 | |
| 20260831170015 | 25 | 267 | 0.0 | 1.6 | 0.00 | 0.05 | 0.00 | 43 | 1028.0 |
| 20260831165016 | 25 | 268 | 0.0 | 1.6 | 0.00 | 0.05 | 0.00 | 42 | 1028.0 |
| 20260831164036 | 24 | 12 | 0.0 | 1.6 | 0.00 | 0.05 | 0.00 | 43 | 1027.9 |
| 20260831163056 | 23 | 12 | 0.0 | 1.6 | 0.00 | 0.05 | 0.00 | 45 | 1027.9 |
| 20260831162038 | 23 | 12 | 0.0 | 1.6 | 0.00 | 0.05 | 0.00 | 47 | 1027.8 |
| 20260831161035 | 23 | 12 | 0.0 | 3.2 | 0.00 | 0.05 | 0.00 | 50 | 1027.7 |
| 20260831160015 | 22 | 41 | 0.0 | 3.2 | 0.00 | 0.05 | 0.00 | 51 | 1027.8 |
| 20260831155015 | 22 | 0.0 | 0.0 | 0.00 | 0.05 | 0.00 | 50 | 1027.7 | |
| 20260831154016 | 22 | 141 | 0.0 | 1.6 | 0.00 | 0.05 | 0.00 | 52 | 1027.7 |
| 20260831153016 | 21 | 141 | 0.0 | 1.6 | 0.00 | 0.05 | 0.00 | 52 | 1027.6 |
| 20260831152016 | 21 | 0.0 | 0.0 | 0.00 | 0.05 | 0.00 | 52 | 1027.6 | |
| 20260831151017 | 21 | 141 | 0.0 | 1.6 | 0.00 | 0.05 | 0.00 | 53 | 1027.6 |
| 20260831150015 | 21 | 141 | 0.0 | 1.6 | 0.00 | 0.05 | 0.00 | 54 | 1027.5 |
| 20260831145015 | 20 | 143 | 0.0 | 3.2 | 0.00 | 0.05 | 0.00 | 55 | 1027.4 |
| 20260831144015 | 20 | 143 | 0.0 | 1.6 | 0.00 | 0.05 | 0.00 | 56 | 1027.3 |
| 20260831143016 | 20 | 142 | 0.0 | 1.6 | 0.00 | 0.05 | 0.00 | 57 | 1027.3 |
| 20260831142016 | 19 | 142 | 1.6 | 3.2 | 0.00 | 0.05 | 0.00 | 57 | 1027.3 |